Location: Oberkirch
(48.5323°N, 8.0787°E)
Time: 07:07:09
(UTC+00:00)

Cosmos 2228 Rocket - Pass Details

Date: 08 November 2025
Orbit: 614 x 645 km, 82.5° (Epoch: 10 December)

Event Time Altitude Azimuth Distance (km) Brightness Sun altitude
Exits shadow 03:25:58 39° 59° (ENE) 941 4.3 -29.7°
Drops below altitude 10° 03:29:16 10° 21° (NNE) 1,997 6.0 -29.2°
Sets 03:31:35 0° 15° (NNE) 2,913 6.8 -28.8°
